C/2010 D3 ( WISE )

Japanese version
Home page
Updated on September 3, 2011

---------------------------------------------------------------------

* Profile

Discovery Date February 26, 2010
Magnitude
Discoverer Wide Field Infrared Survey Explorer (NASA)

* Pictures

* Orbital Elements

Epoch 2010 Sept. 1.0 TT = JDT 2455440.5
T 2010 Sept. 3.92590 TT                                 MPC
q   4.2474874            (2000.0)            P               Q
z  +0.0001222      Peri.  304.64260     -0.33202478     -0.08029054
 +/-0.0000027      Node   255.23841     -0.14101247     -0.98094938
e   0.9994809      Incl.   76.39155     -0.93267091     +0.17689471
From 57 observations 2010 Feb. 24-2011 Aug. 19, mean residual 0".7.

* Magnitudes Graph

        m1 = 9.5 + 5 log d + 10.0 log r

---------------------------------------------------------------------

The orbital elements are published on M.P.E.C. 2011-R11.
The magnitudes graphs are made with Comet for Windows.

---------------------------------------------------------------------

Copyright(C) Seiichi Yoshida (comet@aerith.net). All rights reserved.